Weather History for Dayton Wright, OH

Change the Weather History Date:

Tuesday, January 22, 2013

  Actual Average (KFFO) Record (KFFO)
Temperature  
Mean Temperature 10 °F -  
Max Temperature 16 °F 33 °F 68 °F (1999)
Min Temperature 5 °F 16 °F -6 °F (2011)
Degree Days  
Heating Degree Days 54    
Moisture  
Dew Point -3 °F    
Average Humidity 56    
Maximum Humidity 70    
Minimum Humidity 39    
Precipitation  
Precipitation 0.00 in - - ()
Sea Level Pressure  
Sea Level Pressure 30.33 in    
Wind  
Wind Speed 10 mph (WNW)    
Max Wind Speed 15 mph    
Max Gust Speed 21 mph    
Visibility 10 miles    
Events      
Averages and records for this station are not official NWS values.
T = Trace of Precipitation, MM = Missing Value Source: NWS Daily Summary

Daily Weather History Graph

Daily Weather History Graph

Search for Another Location

Airport:

Trip Planner

Search our weather history database for the weather conditions in past years. The results will help you decide how hot, cold, wet, or windy it might be!

Date:

Astronomy

Jan. 22, 2013 Rise Set
Actual Time 7:52 AM EST 5:45 PM EST
Civil Twilight 7:23 AM EST 6:14 PM EST
Nautical Twilight 6:50 AM EST 6:47 PM EST
Astronomical Twilight 6:18 AM EST 7:19 PM EST
Moon 2:07 PM EST (1/22) 4:12 AM EST (1/22)
Length of Visible Light 10h 51m
Length of Day
9h 53m
Waxing Gibbous, 82% of the Moon is Illuminated
Jan 22
Waxing Gibbous
Jan 26
Full
Feb 3
Last Quarter
Feb 10
New
Feb 17
First Quarter

Hourly Weather History & Observations

Time (EST) Temp. Windchill Dew Point Humidity Pressure Visibility Wind Dir Wind Speed Gust Speed Precip Events Conditions
12:53 AM 9.0 °F -7.9 °F -4.0 °F 56% 30.25 in 10.0 mi West 15.0 mph - N/A   Clear
1:53 AM 8.1 °F -5.3 °F -4.0 °F 58% 30.27 in 10.0 mi West 9.2 mph 18.4 mph N/A   Clear
2:53 AM 8.1 °F -3.2 °F -2.9 °F 61% 30.28 in 10.0 mi WNW 6.9 mph - N/A   Clear
3:53 AM 7.0 °F -4.5 °F -2.9 °F 64% 30.28 in 10.0 mi WNW 6.9 mph - N/A   Clear
4:53 AM 6.1 °F -6.8 °F -2.9 °F 67% 30.29 in 10.0 mi WNW 8.1 mph - N/A   Clear
5:53 AM 6.1 °F -8.7 °F -2.9 °F 67% 30.30 in 10.0 mi West 10.4 mph - N/A   Clear
6:53 AM 5.0 °F -9.1 °F -2.9 °F 70% 30.32 in 10.0 mi West 9.2 mph - N/A   Clear
7:53 AM 5.0 °F -8.1 °F -2.9 °F 70% 30.35 in 10.0 mi West 8.1 mph - N/A   Partly Cloudy
8:53 AM 6.1 °F -10.2 °F -4.0 °F 63% 30.37 in 10.0 mi West 12.7 mph 18.4 mph N/A   Clear
9:53 AM 8.1 °F -5.3 °F -4.0 °F 58% 30.39 in 10.0 mi WNW 9.2 mph 16.1 mph N/A   Clear
10:53 AM 9.0 °F -5.1 °F -4.0 °F 56% 30.40 in 10.0 mi NW 10.4 mph - N/A   Clear
11:53 AM 10.9 °F -4.1 °F -5.1 °F 49% 30.39 in 10.0 mi West 12.7 mph 19.6 mph N/A   Partly Cloudy
12:53 PM 12.0 °F -1.3 °F -4.0 °F 49% 30.36 in 10.0 mi WNW 10.4 mph - N/A   Clear
1:53 PM 12.9 °F 1.6 °F -4.0 °F 47% 30.33 in 10.0 mi WNW 8.1 mph 18.4 mph N/A   Clear
2:53 PM 15.1 °F 2.5 °F -4.0 °F 43% 30.33 in 10.0 mi WNW 10.4 mph 16.1 mph N/A   Clear
3:53 PM 16.0 °F 2.3 °F -4.0 °F 41% 30.34 in 10.0 mi West 12.7 mph 19.6 mph N/A   Clear
4:53 PM 16.0 °F 1.1 °F -5.1 °F 39% 30.34 in 10.0 mi West 15.0 mph 20.7 mph N/A   Clear
5:53 PM 15.1 °F 4.2 °F -5.1 °F 41% 30.34 in 10.0 mi West 8.1 mph - N/A   Clear
6:53 PM 12.9 °F 5.2 °F -0.9 °F 54% 30.35 in 10.0 mi NW 4.6 mph - N/A   Clear
7:53 PM 12.9 °F 5.2 °F -0.9 °F 54% 30.35 in 10.0 mi WNW 4.6 mph - N/A   Clear
8:53 PM 12.9 °F 3.8 °F -0.9 °F 54% 30.34 in 10.0 mi WNW 5.8 mph - N/A   Scattered Clouds
9:53 PM 12.9 °F 2.6 °F -0.0 °F 56% 30.35 in 10.0 mi NW 6.9 mph - N/A   Mostly Cloudy
10:53 PM 12.9 °F 5.2 °F -0.0 °F 56% 30.35 in 10.0 mi WNW 4.6 mph - N/A   Overcast
11:53 PM 12.9 °F - 1.0 °F 59% 30.35 in 10.0 mi Calm Calm - N/A   Overcast